QPF
0.07 0.09 0.13 0.12 0.08 0.09 0.09 0.09 0.08 0.07 0.07 0.07 0.07 0.09 0.09 0.07 0.05 0.07 0.09 0.13 0.10 0.11 0.16 0.18 0.17 0.16 0.14 0.14 0.13 0.10 0.09 0.12 0.12 0.09 0.09 0.10 0.11 0.11 0.10 0.09 0.08 0.06 0.05
0.06 0.08 0.13 0.13 0.09 0.08 0.06 0.07 0.08 0.08 0.08 0.07 0.06 0.05 0.04 0.05 0.06 0.07 0.10 0.13 0.12 0.19 0.25 0.21 0.18 0.16 0.14 0.16 0.16 0.13 0.14 0.14 0.12 0.10 0.11 0.10 0.10 0.10 0.11 0.09 0.07 0.06 0.06
0.04 0.07 0.10 0.12 0.11 0.08 0.06 0.05 0.06 0.07 0.07 0.07 0.08 0.08 0.05 0.06 0.06 0.06 0.08 0.12 0.18 0.23 0.26 0.24 0.20 0.16 0.16 0.17 0.18 0.16 0.15 0.12 0.11 0.09 0.07 0.05 0.06 0.08 0.11 0.14 0.11 0.08 0.06
0.03 0.05 0.08 0.13 0.13 0.11 0.09 0.06 0.07 0.08 0.06 0.06 0.06 0.06 0.05 0.07 0.08 0.08 0.13 0.19 0.22 0.20 0.15 0.19 0.25 0.21 0.18 0.18 0.14 0.13 0.12 0.11 0.11 0.08 0.05 0.03 0.02 0.06 0.10 0.12 0.11 0.11 0.09
0.05 0.07 0.13 0.12 0.11 0.11 0.10 0.09 0.08 0.07 0.07 0.08 0.07 0.06 0.07 0.09 0.13 0.17 0.24 0.23 0.20 0.16 0.11 0.13 0.22 0.20 0.16 0.14 0.08 0.08 0.08 0.09 0.09 0.07 0.04 0.02 0.02 0.06 0.09 0.09 0.10 0.13 0.14
0.09 0.11 0.13 0.12 0.13 0.11 0.11 0.12 0.11 0.10 0.09 0.09 0.09 0.09 0.10 0.08 0.09 0.13 0.16 0.15 0.18 0.17 0.14 0.16 0.16 0.15 0.12 0.09 0.06 0.06 0.07 0.06 0.05 0.03 0.02 0.01 0.02 0.04 0.05 0.06 0.08 0.09 0.11
0.11 0.10 0.11 0.19 0.23 0.22 0.14 0.10 0.09 0.09 0.09 0.09 0.10 0.09 0.10 0.08 0.08 0.10 0.13 0.12 0.16 0.23 0.22 0.16 0.11 0.08 0.09 0.09 0.06 0.06 0.06 0.05 0.03 0.02 0.02 0.01 0.02 0.03 0.02 0.04 0.06 0.05 0.06
0.08 0.06 0.11 0.18 0.24 0.35 0.22 0.11 0.07 0.08 0.09 0.08 0.10 0.11 0.08 0.07 0.07 0.09 0.11 0.11 0.15 0.28 0.22 0.11 0.08 0.07 0.07 0.08 0.07 0.06 0.07 0.04 0.03 0.03 0.02 0.01 0.02 0.03 0.03 0.03 0.05 0.04 0.05
0.04 0.05 0.09 0.16 0.20 0.31 0.19 0.12 0.08 0.08 0.08 0.08 0.13 0.11 0.08 0.07 0.07 0.08 0.08 0.11 0.18 0.25 0.10 0.09 0.08 0.07 0.07 0.09 0.09 0.07 0.07 0.06 0.04 0.03 0.02 0.01 0.02 0.03 0.03 0.04 0.05 0.05 0.04
0.04 0.05 0.08 0.12 0.17 0.18 0.11 0.12 0.08 0.09 0.11 0.11 0.13 0.09 0.08 0.07 0.06 0.07 0.08 0.12 0.21 0.14 0.08 0.09 0.10 0.11 0.10 0.12 0.11 0.10 0.09 0.06 0.03 0.02 0.02 0.01 0.02 0.02 0.03 0.04 0.05 0.06 0.04
0.04 0.04 0.05 0.05 0.07 0.07 0.07 0.10 0.09 0.11 0.10 0.09 0.08 0.06 0.06 0.03 0.03 0.04 0.07 0.12 0.17 0.11 0.07 0.08 0.11 0.12 0.10 0.10 0.11 0.10 0.07 0.04 0.03 0.03 0.01 0.01 0.02 0.03 0.03 0.06 0.08 0.06 0.04
0.05 0.04 0.04 0.03 0.04 0.04 0.05 0.06 0.07 0.07 0.07 0.05 0.04 0.03 0.02 0.01 0.01 0.03 0.08 0.12 0.12 0.11 0.10 0.09 0.10 0.11 0.09 0.09 0.11 0.09 0.06 0.04 0.03 0.02 0.01 0.02 0.03 0.05 0.07 0.12 0.18 0.07 0.04
0.07 0.04 0.04 0.03 0.03 0.03 0.04 0.06 0.05 0.04 0.04 0.03 0.02 0.01 0.02 0.01 0.02 0.03 0.06 0.07 0.06 0.06 0.06 0.09 0.10 0.09 0.09 0.09 0.08 0.07 0.06 0.03 0.03 0.03 0.02 0.02 0.03 0.05 0.09 0.14 0.13 0.05 0.03
0.07 0.05 0.03 0.03 0.03 0.03 0.04 0.04 0.03 0.03 0.02 0.02 0.02 0.01 0.02 0.02 0.02 0.03 0.03 0.03 0.03 0.03 0.05 0.07 0.10 0.12 0.10 0.09 0.08 0.10 0.06 0.03 0.04 0.04 0.02 0.01 0.03 0.05 0.09 0.16 0.13 0.04 0.03
0.05 0.05 0.03 0.02 0.02 0.03 0.03 0.03 0.02 0.02 0.02 0.02 0.02 0.02 0.03 0.03 0.02 0.02 0.03 0.02 0.03 0.02 0.04 0.06 0.06 0.09 0.06 0.06 0.06 0.07 0.05 0.03 0.04 0.03 0.03 0.02 0.04 0.04 0.06 0.08 0.07 0.05 0.04
0.03 0.03 0.03 0.03 0.02 0.02 0.03 0.03 0.03 0.04 0.02 0.01 0.00 0.01 0.03 0.03 0.03 0.02 0.04 0.04 0.03 0.02 0.03 0.04 0.04 0.03 0.03 0.04 0.03 0.03 0.04 0.04 0.04 0.03 0.03 0.03 0.03 0.04 0.05 0.06 0.05 0.06 0.06
0.01 0.02 0.02 0.03 0.03 0.03 0.02 0.02 0.02 0.03 0.01 0.00 0.00 0.01 0.03 0.03 0.03 0.03 0.03 0.04 0.02 0.03 0.03 0.03 0.03 0.05 0.07 0.05 0.02 0.02 0.03 0.04 0.03 0.03 0.03 0.03 0.03 0.04 0.05 0.05 0.06 0.07 0.08
0.01 0.01 0.01 0.02 0.03 0.03 0.02 0.02 0.02 0.02 0.01 0.01 0.01 0.02 0.03 0.04 0.05 0.06 0.06 0.05 0.04 0.04 0.04 0.04 0.03 0.06 0.06 0.05 0.03 0.02 0.03 0.02 0.02 0.03 0.03 0.03 0.03 0.04 0.04 0.05 0.07 0.09 0.10
0.01 0.01 0.01 0.02 0.03 0.03 0.02 0.03 0.02 0.02 0.01 0.01 0.01 0.02 0.03 0.05 0.05 0.08 0.08 0.06 0.05 0.05 0.06 0.06 0.04 0.05 0.05 0.04 0.04 0.03 0.02 0.02 0.02 0.03 0.03 0.02 0.03 0.04 0.03 0.04 0.06 0.09 0.09
0.02 0.02 0.01 0.02 0.02 0.03 0.03 0.02 0.02 0.02 0.01 0.01 0.01 0.01 0.02 0.06 0.08 0.09 0.07 0.05 0.05 0.05 0.05 0.06 0.07 0.06 0.05 0.05 0.03 0.03 0.03 0.03 0.03 0.04 0.03 0.04 0.04 0.04 0.04 0.05 0.04 0.06 0.08
0.02 0.03 0.02 0.01 0.01 0.01 0.02 0.02 0.02 0.02 0.02 0.01 0.01 0.02 0.02 0.06 0.10 0.11 0.08 0.05 0.06 0.06 0.06 0.06 0.06 0.06 0.05 0.05 0.03 0.02 0.02 0.03 0.04 0.03 0.04 0.05 0.04 0.05 0.04 0.04 0.04 0.04 0.04
0.01 0.01 0.01 0.01 0.00 0.01 0.02 0.03 0.04 0.03 0.03 0.01 0.02 0.02 0.02 0.03 0.05 0.07 0.07 0.06 0.06 0.06 0.06 0.07 0.07 0.06 0.04 0.04 0.02 0.01 0.01 0.02 0.04 0.03 0.03 0.04 0.05 0.06 0.06 0.05 0.04 0.05 0.04
0.01 0.01 0.00 0.00 0.00 0.02 0.04 0.06 0.06 0.04 0.02 0.01 0.01 0.02 0.03 0.04 0.04 0.03 0.05 0.06 0.07 0.09 0.08 0.08 0.09 0.07 0.04 0.03 0.03 0.03 0.02 0.01 0.02 0.03 0.04 0.05 0.06 0.07 0.08 0.08 0.07 0.07 0.07
0.01 0.01 0.01 0.01 0.00 0.01 0.01 0.01 0.01 0.01 0.01 0.01 0.02 0.04 0.04 0.04 0.05 0.05 0.04 0.04 0.05 0.05 0.05 0.06 0.07 0.07 0.04 0.03 0.04 0.04 0.03 0.02 0.02 0.02 0.02 0.02 0.04 0.04 0.04 0.05 0.05 0.06 0.06
0.02 0.02 0.01 0.01 0.01 0.01 0.01 0.01 0.01 0.00 0.00 0.01 0.02 0.03 0.05 0.06 0.08 0.09 0.09 0.09 0.07 0.05 0.04 0.06 0.07 0.06 0.05 0.03 0.04 0.04 0.04 0.03 0.03 0.02 0.02 0.02 0.02 0.02 0.03 0.03 0.03 0.02 0.02
0.03 0.03 0.01 0.00 0.01 0.01 0.01 0.01 0.01 0.00 0.00 0.01 0.01 0.03 0.05 0.07 0.10 0.13 0.13 0.10 0.10 0.09 0.06 0.05 0.05 0.04 0.03 0.03 0.05 0.04 0.05 0.04 0.04 0.03 0.02 0.02 0.02 0.02 0.02 0.01 0.02 0.03 0.03
MSLP
1008.76 1008.08 1007.57 1007.30 1007.27 1007.44 1007.74 1008.09 1008.43 1008.73 1008.99 1009.24 1009.54 1009.92 1010.39 1010.94 1011.53 1012.12 1012.64 1013.06 1013.38 1013.61 1013.80 1013.98 1014.18 1014.43 1014.71 1015.00 1015.27 1015.49 1015.66 1015.79 1015.89 1015.99 1016.11 1016.26 1016.43 1016.60 1016.75 1016.86 1016.94 1017.01 1017.07
1008.97 1008.35 1007.90 1007.67 1007.67 1007.85 1008.14 1008.47 1008.79 1009.07 1009.32 1009.58 1009.88 1010.26 1010.74 1011.29 1011.88 1012.44 1012.94 1013.34 1013.64 1013.87 1014.05 1014.23 1014.43 1014.67 1014.93 1015.20 1015.45 1015.67 1015.84 1015.97 1016.10 1016.22 1016.37 1016.53 1016.70 1016.85 1016.98 1017.08 1017.14 1017.18 1017.25
1009.11 1008.57 1008.18 1008.00 1008.03 1008.23 1008.52 1008.85 1009.16 1009.44 1009.69 1009.95 1010.25 1010.64 1011.10 1011.64 1012.19 1012.72 1013.18 1013.56 1013.84 1014.06 1014.24 1014.43 1014.63 1014.87 1015.13 1015.40 1015.64 1015.86 1016.04 1016.20 1016.34 1016.50 1016.67 1016.84 1017.00 1017.15 1017.25 1017.32 1017.36 1017.39 1017.45
1009.20 1008.74 1008.42 1008.30 1008.38 1008.59 1008.90 1009.23 1009.54 1009.82 1010.07 1010.34 1010.65 1011.02 1011.47 1011.97 1012.48 1012.96 1013.38 1013.73 1014.00 1014.22 1014.41 1014.61 1014.83 1015.08 1015.34 1015.60 1015.85 1016.07 1016.26 1016.45 1016.62 1016.81 1017.00 1017.18 1017.34 1017.46 1017.54 1017.58 1017.60 1017.63 1017.69
1009.27 1008.89 1008.65 1008.60 1008.71 1008.96 1009.27 1009.60 1009.92 1010.20 1010.46 1010.74 1011.05 1011.41 1011.83 1012.29 1012.76 1013.19 1013.57 1013.89 1014.15 1014.38 1014.59 1014.81 1015.05 1015.31 1015.58 1015.84 1016.08 1016.30 1016.50 1016.70 1016.91 1017.11 1017.32 1017.51 1017.67 1017.78 1017.83 1017.85 1017.85 1017.87 1017.94
1009.37 1009.07 1008.92 1008.92 1009.07 1009.33 1009.65 1009.98 1010.29 1010.58 1010.85 1011.13 1011.44 1011.80 1012.20 1012.62 1013.04 1013.43 1013.78 1014.08 1014.33 1014.57 1014.80 1015.05 1015.31 1015.58 1015.84 1016.09 1016.32 1016.53 1016.74 1016.94 1017.16 1017.38 1017.60 1017.80 1017.95 1018.05 1018.10 1018.10 1018.09 1018.11 1018.19
1009.56 1009.34 1009.25 1009.30 1009.48 1009.74 1010.05 1010.37 1010.67 1010.95 1011.23 1011.52 1011.84 1012.19 1012.57 1012.97 1013.35 1013.71 1014.02 1014.30 1014.56 1014.81 1015.06 1015.33 1015.61 1015.88 1016.13 1016.36 1016.57 1016.75 1016.94 1017.13 1017.35 1017.57 1017.80 1018.01 1018.16 1018.26 1018.30 1018.30 1018.29 1018.32 1018.40
1009.86 1009.71 1009.67 1009.76 1009.94 1010.19 1010.48 1010.76 1011.04 1011.32 1011.60 1011.89 1012.22 1012.58 1012.96 1013.33 1013.69 1014.02 1014.32 1014.58 1014.84 1015.10 1015.37 1015.65 1015.93 1016.20 1016.43 1016.63 1016.80 1016.95 1017.10 1017.26 1017.46 1017.68 1017.91 1018.12 1018.29 1018.39 1018.44 1018.44 1018.44 1018.47 1018.55
1010.29 1010.19 1010.20 1010.29 1010.47 1010.69 1010.93 1011.18 1011.43 1011.68 1011.96 1012.27 1012.61 1012.98 1013.36 1013.73 1014.07 1014.38 1014.65 1014.90 1015.15 1015.41 1015.69 1015.98 1016.26 1016.51 1016.73 1016.89 1017.01 1017.11 1017.22 1017.34 1017.51 1017.72 1017.94 1018.15 1018.33 1018.45 1018.51 1018.53 1018.53 1018.56 1018.64
1010.79 1010.75 1010.79 1010.89 1011.05 1011.23 1011.42 1011.61 1011.82 1012.05 1012.32 1012.64 1013.00 1013.39 1013.77 1014.14 1014.47 1014.76 1015.01 1015.24 1015.48 1015.74 1016.01 1016.30 1016.57 1016.81 1017.00 1017.13 1017.21 1017.26 1017.31 1017.39 1017.52 1017.70 1017.91 1018.12 1018.31 1018.45 1018.53 1018.56 1018.58 1018.61 1018.69
1011.32 1011.33 1011.39 1011.50 1011.64 1011.77 1011.91 1012.06 1012.23 1012.43 1012.70 1013.02 1013.40 1013.80 1014.20 1014.57 1014.89 1015.15 1015.38 1015.59 1015.80 1016.04 1016.31 1016.58 1016.85 1017.08 1017.25 1017.35 1017.39 1017.39 1017.40 1017.43 1017.52 1017.66 1017.85 1018.06 1018.26 1018.41 1018.51 1018.57 1018.60 1018.64 1018.71
1011.79 1011.85 1011.96 1012.07 1012.19 1012.30 1012.39 1012.50 1012.63 1012.82 1013.08 1013.42 1013.80 1014.22 1014.63 1014.99 1015.30 1015.54 1015.74 1015.92 1016.10 1016.32 1016.56 1016.82 1017.08 1017.30 1017.46 1017.54 1017.56 1017.53 1017.49 1017.48 1017.52 1017.62 1017.78 1017.98 1018.18 1018.35 1018.47 1018.56 1018.61 1018.65 1018.71
1012.13 1012.26 1012.41 1012.55 1012.67 1012.76 1012.84 1012.92 1013.03 1013.21 1013.47 1013.81 1014.20 1014.63 1015.03 1015.39 1015.68 1015.91 1016.07 1016.22 1016.37 1016.55 1016.77 1017.02 1017.26 1017.48 1017.63 1017.71 1017.71 1017.65 1017.58 1017.53 1017.52 1017.58 1017.71 1017.88 1018.07 1018.25 1018.40 1018.51 1018.58 1018.64 1018.70
1012.31 1012.51 1012.71 1012.89 1013.03 1013.13 1013.21 1013.29 1013.40 1013.57 1013.83 1014.18 1014.58 1015.00 1015.40 1015.75 1016.03 1016.23 1016.37 1016.48 1016.59 1016.74 1016.93 1017.16 1017.40 1017.60 1017.76 1017.83 1017.83 1017.77 1017.67 1017.57 1017.52 1017.53 1017.60 1017.74 1017.91 1018.10 1018.26 1018.39 1018.50 1018.57 1018.64
1012.32 1012.58 1012.84 1013.07 1013.26 1013.39 1013.50 1013.59 1013.72 1013.90 1014.17 1014.51 1014.90 1015.32 1015.71 1016.05 1016.31 1016.49 1016.61 1016.69 1016.78 1016.90 1017.06 1017.26 1017.48 1017.69 1017.84 1017.92 1017.92 1017.84 1017.72 1017.59 1017.49 1017.44 1017.46 1017.55 1017.69 1017.86 1018.03 1018.19 1018.32 1018.42 1018.50
1012.18 1012.50 1012.81 1013.10 1013.34 1013.53 1013.68 1013.82 1013.97 1014.17 1014.44 1014.77 1015.15 1015.55 1015.92 1016.24 1016.49 1016.66 1016.77 1016.84 1016.92 1017.01 1017.16 1017.34 1017.54 1017.73 1017.88 1017.96 1017.95 1017.87 1017.73 1017.57 1017.41 1017.30 1017.26 1017.28 1017.38 1017.52 1017.68 1017.85 1018.00 1018.13 1018.24
1011.97 1012.32 1012.68 1013.01 1013.31 1013.56 1013.77 1013.96 1014.15 1014.37 1014.64 1014.95 1015.30 1015.67 1016.01 1016.32 1016.56 1016.73 1016.84 1016.92 1016.99 1017.09 1017.21 1017.37 1017.55 1017.73 1017.87 1017.95 1017.94 1017.86 1017.70 1017.50 1017.30 1017.12 1017.00 1016.96 1016.98 1017.08 1017.21 1017.37 1017.54 1017.69 1017.82
1011.74 1012.09 1012.47 1012.84 1013.19 1013.50 1013.77 1014.02 1014.25 1014.49 1014.75 1015.04 1015.35 1015.67 1015.97 1016.25 1016.49 1016.67 1016.80 1016.91 1017.00 1017.10 1017.22 1017.37 1017.54 1017.70 1017.83 1017.90 1017.89 1017.80 1017.63 1017.40 1017.15 1016.92 1016.72 1016.59 1016.54 1016.56 1016.65 1016.78 1016.93 1017.09 1017.24
1011.53 1011.87 1012.23 1012.62 1013.00 1013.37 1013.71 1014.01 1014.28 1014.54 1014.78 1015.03 1015.28 1015.54 1015.80 1016.05 1016.28 1016.47 1016.64 1016.78 1016.90 1017.03 1017.16 1017.31 1017.46 1017.61 1017.73 1017.79 1017.79 1017.70 1017.52 1017.28 1017.00 1016.71 1016.44 1016.22 1016.08 1016.02 1016.03 1016.11 1016.23 1016.37 1016.51
1011.36 1011.65 1011.99 1012.37 1012.78 1013.19 1013.58 1013.93 1014.24 1014.50 1014.73 1014.93 1015.11 1015.31 1015.51 1015.72 1015.93 1016.14 1016.34 1016.52 1016.69 1016.84 1017.00 1017.15 1017.30 1017.43 1017.55 1017.61 1017.61 1017.54 1017.38 1017.14 1016.84 1016.51 1016.18 1015.88 1015.65 1015.49 1015.41 1015.41 1015.47 1015.57 1015.68
1011.19 1011.43 1011.72 1012.09 1012.50 1012.95 1013.39 1013.79 1014.13 1014.40 1014.60 1014.75 1014.87 1014.98 1015.11 1015.27 1015.46 1015.67 1015.90 1016.12 1016.32 1016.52 1016.69 1016.85 1016.99 1017.13 1017.24 1017.31 1017.33 1017.28 1017.15 1016.93 1016.64 1016.30 1015.93 1015.58 1015.26 1015.01 1014.83 1014.73 1014.71 1014.74 1014.81
1010.99 1011.16 1011.41 1011.75 1012.17 1012.64 1013.12 1013.56 1013.94 1014.22 1014.41 1014.51 1014.56 1014.59 1014.65 1014.74 1014.89 1015.09 1015.33 1015.57 1015.80 1016.02 1016.21 1016.37 1016.51 1016.64 1016.75 1016.84 1016.88 1016.87 1016.79 1016.62 1016.37 1016.05 1015.67 1015.28 1014.91 1014.58 1014.31 1014.12 1014.00 1013.95 1013.96
1010.70 1010.82 1011.03 1011.33 1011.75 1012.24 1012.75 1013.25 1013.66 1013.97 1014.15 1014.21 1014.20 1014.17 1014.14 1014.17 1014.27 1014.43 1014.65 1014.89 1015.13 1015.35 1015.53 1015.69 1015.82 1015.93 1016.04 1016.14 1016.22 1016.26 1016.24 1016.14 1015.96 1015.68 1015.34 1014.96 1014.56 1014.18 1013.85 1013.58 1013.38 1013.25 1013.18
1010.30 1010.37 1010.53 1010.82 1011.22 1011.73 1012.28 1012.82 1013.29 1013.63 1013.82 1013.87 1013.83 1013.73 1013.64 1013.60 1013.63 1013.74 1013.91 1014.12 1014.33 1014.52 1014.68 1014.80 1014.91 1015.00 1015.10 1015.21 1015.32 1015.41 1015.46 1015.45 1015.36 1015.17 1014.89 1014.55 1014.17 1013.79 1013.43 1013.11 1012.85 1012.66 1012.52
1009.79 1009.83 1009.95 1010.20 1010.60 1011.12 1011.70 1012.30 1012.81 1013.20 1013.43 1013.49 1013.43 1013.30 1013.16 1013.05 1013.01 1013.05 1013.16 1013.31 1013.47 1013.61 1013.72 1013.79 1013.85 1013.91 1013.98 1014.09 1014.22 1014.36 1014.48 1014.56 1014.56 1014.48 1014.30 1014.05 1013.73 1013.39 1013.04 1012.72 1012.43 1012.20 1012.01
1009.23 1009.24 1009.31 1009.53 1009.91 1010.43 1011.04 1011.68 1012.25 1012.70 1012.98 1013.08 1013.04 1012.90 1012.72 1012.57 1012.47 1012.44 1012.47 1012.55 1012.64 1012.70 1012.75 1012.76 1012.75 1012.76 1012.80 1012.89 1013.02 1013.19 1013.37 1013.53 1013.64 1013.67 1013.61 1013.46 1013.24 1012.97 1012.69 1012.40 1012.13 1011.89 1011.69
Thickness
5792 5796 5797 5797 5797 5797 5797 5797 5797 5798 5797 5797 5797 5796 5795 5794 5792 5791 5789 5788 5786 5784 5782 5780 5779 5777 5775 5773 5771 5770 5769 5767 5766 5765 5763 5762 5761 5760 5759 5758 5756 5755 5754
5794 5795 5796 5796 5795 5795 5795 5795 5795 5796 5795 5795 5795 5794 5793 5792 5791 5790 5788 5787 5785 5783 5781 5779 5778 5776 5774 5772 5771 5769 5767 5766 5764 5763 5762 5761 5760 5758 5757 5756 5755 5753 5752
5794 5794 5794 5794 5794 5794 5794 5794 5794 5793 5793 5793 5792 5792 5791 5791 5790 5788 5787 5786 5784 5782 5780 5778 5777 5775 5773 5771 5769 5767 5766 5765 5763 5762 5761 5759 5758 5757 5756 5755 5754 5752 5751
5794 5793 5792 5792 5792 5792 5792 5792 5792 5791 5791 5791 5790 5790 5789 5789 5788 5787 5786 5784 5783 5781 5779 5777 5775 5773 5772 5770 5768 5766 5765 5763 5762 5760 5759 5758 5757 5756 5755 5754 5753 5752 5750
5792 5791 5791 5791 5791 5790 5790 5790 5790 5790 5789 5789 5788 5788 5788 5787 5786 5785 5784 5782 5781 5779 5777 5776 5774 5772 5770 5768 5767 5765 5764 5762 5761 5759 5758 5757 5756 5755 5754 5754 5753 5751 5750
5791 5790 5790 5790 5789 5789 5788 5788 5787 5787 5787 5787 5787 5786 5786 5785 5783 5782 5782 5780 5779 5778 5776 5774 5773 5771 5769 5767 5766 5764 5763 5761 5759 5758 5757 5756 5755 5754 5754 5753 5752 5751 5749
5789 5789 5788 5788 5788 5787 5786 5786 5785 5785 5785 5785 5785 5784 5784 5783 5782 5780 5779 5779 5778 5777 5775 5773 5771 5770 5768 5766 5765 5764 5762 5760 5758 5757 5756 5755 5754 5753 5753 5752 5751 5750 5749
5788 5787 5787 5787 5787 5786 5785 5784 5784 5784 5784 5784 5783 5783 5782 5781 5780 5779 5778 5777 5776 5775 5774 5772 5770 5769 5767 5766 5764 5763 5761 5760 5758 5756 5755 5754 5754 5753 5753 5752 5751 5750 5748
5788 5787 5787 5787 5786 5785 5784 5783 5783 5783 5783 5782 5782 5781 5781 5780 5779 5778 5777 5775 5775 5773 5772 5771 5769 5768 5766 5765 5763 5762 5760 5759 5757 5756 5755 5754 5754 5753 5752 5751 5750 5749 5748
5786 5786 5786 5787 5786 5785 5784 5783 5782 5782 5781 5781 5781 5780 5779 5778 5778 5777 5775 5774 5773 5772 5771 5770 5768 5767 5765 5763 5762 5761 5759 5758 5756 5755 5754 5754 5753 5752 5751 5751 5750 5749 5747
5784 5785 5785 5785 5784 5784 5783 5782 5781 5780 5780 5780 5779 5778 5778 5777 5776 5775 5775 5773 5772 5771 5770 5768 5767 5765 5764 5762 5761 5759 5758 5756 5755 5754 5754 5754 5753 5752 5751 5750 5749 5749 5747
5781 5783 5784 5784 5783 5783 5782 5781 5780 5779 5778 5777 5777 5776 5776 5775 5774 5773 5773 5772 5771 5769 5768 5767 5766 5764 5762 5760 5759 5758 5757 5755 5754 5753 5753 5753 5752 5751 5751 5750 5749 5748 5746
5782 5782 5783 5783 5783 5782 5780 5780 5778 5777 5777 5776 5775 5775 5774 5773 5772 5771 5771 5770 5769 5768 5767 5765 5764 5762 5760 5759 5757 5756 5755 5754 5753 5753 5753 5752 5752 5751 5750 5749 5748 5747 5746
5783 5783 5784 5783 5782 5781 5780 5779 5778 5777 5776 5774 5774 5774 5773 5772 5770 5769 5769 5768 5767 5766 5765 5764 5763 5761 5759 5757 5756 5755 5755 5753 5752 5752 5752 5752 5751 5750 5749 5748 5748 5746 5745
5784 5784 5784 5783 5782 5781 5780 5779 5778 5776 5775 5774 5773 5772 5772 5770 5769 5768 5767 5766 5765 5764 5763 5762 5761 5759 5758 5757 5756 5755 5754 5753 5752 5752 5751 5751 5751 5750 5749 5748 5747 5746 5745
5785 5785 5785 5784 5783 5781 5780 5778 5777 5776 5775 5774 5773 5772 5771 5769 5768 5767 5766 5765 5764 5763 5762 5761 5759 5758 5757 5756 5755 5754 5754 5753 5752 5752 5751 5750 5750 5749 5748 5747 5746 5745 5744
5787 5787 5785 5784 5783 5781 5780 5778 5777 5776 5775 5773 5772 5771 5770 5769 5768 5766 5764 5763 5763 5762 5761 5759 5758 5756 5755 5754 5754 5753 5753 5752 5752 5751 5750 5749 5748 5747 5747 5746 5745 5745 5744
5789 5787 5786 5786 5783 5781 5780 5779 5777 5776 5774 5772 5771 5770 5770 5769 5768 5766 5764 5762 5762 5761 5760 5758 5756 5754 5753 5752 5751 5751 5752 5751 5751 5750 5749 5748 5747 5746 5746 5745 5744 5744 5743
5790 5788 5786 5785 5784 5782 5780 5778 5776 5775 5774 5772 5771 5770 5770 5769 5768 5766 5764 5762 5761 5760 5759 5757 5755 5753 5751 5750 5750 5750 5750 5750 5749 5749 5748 5747 5747 5746 5745 5744 5743 5742 5741
5792 5790 5787 5785 5784 5782 5780 5778 5776 5774 5773 5772 5771 5770 5769 5768 5767 5766 5764 5762 5761 5759 5757 5755 5753 5752 5750 5749 5749 5748 5748 5749 5748 5747 5747 5747 5746 5745 5744 5743 5742 5741 5740
5792 5789 5787 5785 5783 5781 5778 5776 5773 5772 5772 5771 5771 5770 5769 5767 5766 5765 5763 5761 5760 5757 5756 5754 5752 5750 5748 5747 5745 5743 5745 5746 5746 5746 5746 5745 5745 5744 5742 5741 5740 5739 5738
5792 5790 5788 5786 5784 5782 5780 5778 5776 5774 5773 5773 5772 5770 5769 5767 5766 5765 5762 5760 5759 5756 5754 5753 5751 5748 5747 5746 5742 5738 5735 5738 5741 5744 5744 5743 5743 5742 5741 5740 5738 5737 5736
5793 5792 5791 5787 5786 5784 5782 5779 5777 5774 5772 5770 5770 5769 5768 5767 5765 5764 5762 5760 5758 5756 5754 5752 5750 5747 5743 5743 5742 5737 5731 5729 5733 5738 5740 5740 5740 5739 5739 5738 5737 5736 5734
5796 5795 5792 5789 5787 5785 5783 5779 5775 5771 5768 5768 5768 5768 5767 5766 5764 5763 5761 5759 5758 5755 5754 5752 5750 5748 5744 5741 5740 5739 5737 5735 5729 5729 5734 5736 5736 5736 5736 5736 5735 5734 5733
5798 5795 5792 5789 5787 5785 5783 5780 5776 5772 5770 5768 5767 5766 5765 5764 5763 5762 5760 5758 5756 5754 5753 5751 5749 5747 5745 5742 5739 5737 5735 5733 5731 5727 5725 5729 5731 5733 5733 5733 5732 5732 5731
5799 5796 5793 5789 5786 5785 5782 5779 5776 5772 5770 5767 5765 5763 5762 5762 5762 5761 5759 5758 5756 5754 5752 5750 5748 5746 5744 5741 5738 5736 5734 5732 5729 5726 5724 5724 5725 5728 5730 5730 5730 5729 5728